星链-34960 (STARLINK-34960)

导读

STARLINK-34903是美国于2025年8月28日发射的星链卫星,属于SpaceX星链星座项目。星链旨在构建全球卫星互联网,为全球偏远地区提供高速宽带服务。此卫星加入后,进一步扩充星链低轨卫星星座规模,提升星座覆盖密度与服务容量,推动全球网络覆盖普及。

基本信息
目录编号:
65372
目录名称:
STARLINK-34903
国际标识:
2025-190X
轨道中心:
EARTH
卫星名称:
星链-34960
卫星全名:
星链-34960 (STARLINK-34960)
卫星状态:
在轨 (已飞行289 天)
发射日期:
2025-08-28 UTC
国别 :
美国 (US)
星等 :
--
轨道信息
数据来源 国际轨道数据 AOE轨道数据
星历时间 2026-06-13T10:08:59+0800
13小时前
查看轨道信息
2026-06-13T06:00:00+0800
18小时前
查看轨道信息
半长轴 6853.31km 6853.365km
偏心率 0.0001257 0.0001783
轨道倾角 53.158° 53.160°
近地点辐角 103.965° 69.082°
升交点赤经 84.880° 85.693°
平近点角 256.149° 58.021°
近地点 474.311km 474.006km
远地点 476.035km 476.45km
周期 94.104分钟 94.106分钟
每日圈数 15.302144 15.301958
详细信息
固有亮度:
5
最大亮度:
2.5
卫星平台:
Starlink V1.0
覆盖范围:
全球
运营商:
太空探索技术公司
运营商所在国:
美国
制造商(研发单位):
太空探索技术公司
制造商所在国:
美国
使用方式:
暂无
卫星简介
Starlink 计划是 SpaceX 推出的全球卫星互联网项目,通过发射低轨道卫星,为全球尤其是偏远地区提供高速、低延迟的互联网服务。自 2019 年起,Starlink 已部署数千颗卫星,旨在缩小全球数字鸿沟,推动互联网普及。该项目还为军事、航空等行业提供通信支持,带来广泛经济效益。
2D轨道图
3D轨道图
轨道高度分析图
轨道倾角分析图
轨道综合分析图
查看轨道综合分析图